Wind_Speed
66 65 64 64 63 62 61 60 59 58 58 58 57 56 56 56 56 55 55 55 56 56 56 55 55 55 55 55 55 56 56 55 55 53 52 51 51 52 53 53 53 53
70 69 69 68 67 66 65 64 63 62 62 61 61 60 60 60 59 60 59 59 59 59 59 59 59 59 59 59 59 59 59 59 58 57 56 55 55 55 56 56 56 56
72 72 72 72 71 70 70 69 68 66 65 65 64 64 63 63 63 63 63 63 63 63 63 63 63 63 63 63 63 63 63 62 61 61 60 60 59 59 59 59 59 59
73 73 74 74 74 73 73 73 72 70 69 68 67 67 67 66 66 66 66 66 67 67 67 66 66 66 66 66 66 66 66 65 64 63 63 63 63 63 62 62 62 62
72 73 73 74 74 74 74 74 73 73 72 71 70 70 69 69 68 68 68 68 68 68 68 68 68 68 68 68 68 68 68 68 67 66 65 65 65 65 65 65 64 64
71 72 72 72 72 72 72 72 72 72 72 72 72 72 71 71 70 70 70 70 70 69 69 69 69 69 68 68 68 68 68 68 67 66 66 66 66 66 66 66 65 64
70 70 70 70 69 69 69 69 69 69 69 70 71 71 71 70 69 69 69 69 69 68 68 68 68 67 67 68 68 68 67 67 67 66 66 65 66 66 66 65 65 64
69 69 68 67 67 66 66 66 66 66 67 67 67 67 67 66 66 65 64 64 64 63 63 63 63 63 64 65 65 66 66 66 66 66 66 66 66 66 66 66 66 65
69 69 68 67 67 66 65 65 65 66 66 66 65 64 64 63 62 61 60 60 59 58 57 57 57 58 59 60 61 62 62 63 64 65 65 66 66 66 66 67 66 66
71 71 70 70 69 68 67 67 66 67 67 67 66 65 63 62 61 60 59 59 58 57 57 57 57 58 58 59 59 59 60 60 61 62 63 64 65 65 66 66 66 65
74 73 73 73 72 72 71 70 69 69 69 69 69 68 66 64 62 61 60 60 60 59 59 59 59 60 60 60 59 60 60 61 61 62 63 64 64 65 66 66 66 65
77 77 77 76 75 75 74 73 72 71 71 71 71 71 70 68 66 65 64 64 63 63 63 63 63 63 64 63 64 64 64 64 64 64 64 65 65 66 66 66 65 64
80 80 80 80 79 78 77 76 75 74 73 73 73 73 72 71 70 69 68 68 68 67 67 67 67 67 67 67 67 67 67 66 66 66 66 66 66 66 66 66 66 65
81 82 82 82 81 81 80 79 78 77 76 76 75 74 74 74 74 73 73 72 72 72 71 71 71 70 69 69 69 69 69 69 69 68 68 68 67 67 67 67 66 66
83 84 83 84 84 83 83 82 81 81 80 80 79 78 78 78 77 77 77 77 76 76 76 75 74 72 72 71 72 72 72 72 72 71 71 70 69 68 68 68 67 67
82 83 84 85 85 86 86 85 85 85 84 84 83 82 82 82 82 82 82 81 81 80 80 79 78 77 76 76 75 74 75 75 75 74 74 73 72 71 70 69 69 69
79 80 81 82 84 85 86 86 87 87 88 88 88 87 87 86 86 86 85 86 85 85 84 84 83 82 81 79 78 77 77 77 77 77 76 76 75 74 73 72 72 72
79 80 80 80 81 82 83 83 84 86 87 88 89 89 90 90 89 89 89 89 89 88 88 87 86 85 84 82 80 79 78 78 78 78 78 78 77 76 76 75 74 74
81 82 82 82 81 81 82 82 83 83 83 84 85 87 88 89 89 90 90 90 90 90 89 88 86 84 83 82 81 80 79 79 79 78 78 78 78 77 77 76 76 76
82 82 83 82 82 82 82 82 82 82 81 81 82 83 84 85 85 86 86 86 86 86 86 84 83 81 80 80 79 79 79 79 79 79 79 78 78 78 78 78 77 77
81 81 81 81 80 80 81 81 81 80 80 80 80 80 81 81 81 81 81 81 81 81 81 79 78 78 78 78 79 79 79 80 79 79 79 79 79 79 79 80 79 79
80 81 80 80 80 79 79 79 79 79 79 79 80 80 79 79 79 79 79 80 80 79 79 77 76 76 77 77 78 79 79 80 80 79 79 79 79 80 80 80 80 79
81 81 81 81 81 81 80 80 80 80 80 80 80 80 80 80 80 80 80 80 79 79 79 77 76 76 76 77 78 79 80 80 80 79 79 79 78 79 79 79 78 76
83 83 83 83 83 83 83 83 83 83 82 82 82 82 81 81 81 81 81 81 80 80 79 78 77 77 77 78 78 79 80 80 80 79 78 78 77 77 76 75 74 73
90 89 88 87 86 85 84 84 84 85 85 85 85 84 83 82 82 83 82 82 82 81 81 80 79 79 79 79 79 80 80 80 80 80 78 77 76 74 73 73 72 71
96 96 95 94 92 91 89 87 86 85 86 87 87 87 86 86 85 85 84 84 83 83 83 82 81 81 81 82 81 81 81 80 80 80 79 77 75 74 73 72 72 71
Wind_Direction
263 263 262 262 263 263 263 263 263 264 264 265 265 265 266 266 267 267 268 269 270 270 271 272 272 272 272 272 273 273 273 274 275 275 276 276 277 277 278 279 280 281
263 263 263 263 263 263 263 262 262 262 262 263 264 265 265 265 266 267 267 268 268 269 270 270 271 271 271 272 272 273 273 274 275 276 276 276 276 277 278 278 279 280
263 263 263 263 264 264 264 264 263 263 262 263 263 264 264 265 266 266 267 268 268 269 269 270 270 271 271 272 272 273 274 274 275 276 277 277 278 278 279 279 280 280
263 263 263 263 263 263 264 264 265 265 264 264 264 264 264 264 265 265 266 267 267 268 269 270 270 271 271 272 272 273 274 274 275 276 277 278 278 279 279 280 280 281
263 263 263 263 263 263 263 264 265 265 266 266 266 265 265 265 265 265 265 265 266 267 267 268 269 270 271 272 272 273 274 274 275 276 276 277 278 278 279 279 280 281
263 263 263 263 263 264 264 264 265 265 266 266 266 266 267 267 267 267 266 266 266 267 267 268 268 269 270 271 272 272 273 274 275 275 276 277 277 278 278 279 280 280
262 263 263 263 264 264 264 265 265 265 265 265 265 266 266 266 267 267 268 268 268 268 268 269 269 269 270 271 271 272 273 274 275 275 276 276 277 277 278 279 279 280
261 261 262 262 263 264 265 265 266 265 265 265 265 264 264 265 265 266 267 267 268 269 269 270 270 270 271 271 272 272 273 274 275 275 276 276 277 277 278 278 279 279
260 260 261 262 263 264 265 265 265 265 264 264 263 263 262 262 262 263 263 265 266 267 268 269 270 270 271 272 273 273 274 275 275 276 276 276 277 277 277 277 277 278
260 261 261 262 263 263 264 264 264 264 264 263 262 261 261 261 261 262 262 263 264 265 266 268 269 270 271 272 273 275 275 276 276 277 277 277 277 276 276 276 276 276
260 261 262 262 263 263 263 263 263 263 262 262 261 260 259 259 260 261 262 263 264 266 267 268 270 271 272 273 275 276 277 278 278 278 278 278 278 277 276 275 275 274
259 260 261 261 262 262 263 263 262 262 261 261 261 261 260 260 260 260 261 263 265 266 268 270 271 273 274 275 275 276 277 277 278 278 277 277 277 276 275 274 274 272
257 258 259 260 261 261 262 262 262 262 261 261 261 260 260 260 261 261 262 264 265 267 269 271 272 273 274 274 275 275 276 276 276 275 274 274 273 273 272 272 271 270
256 257 258 259 260 260 261 261 261 261 261 261 261 260 260 261 261 262 263 265 266 268 270 271 272 272 273 274 274 275 275 274 274 273 272 271 271 270 269 269 268 268
256 256 256 257 258 259 259 260 260 261 261 261 261 261 261 261 262 263 264 265 267 269 270 271 272 272 272 273 273 273 273 272 271 270 270 269 269 268 268 268 268 268
257 256 256 256 257 257 258 258 259 260 261 261 261 261 261 262 263 264 265 266 268 269 270 271 272 273 273 273 272 271 270 269 269 268 268 267 267 267 267 267 268 269
257 257 257 257 257 257 257 258 258 259 260 261 262 262 262 262 263 264 265 266 267 269 270 271 272 273 273 272 271 270 268 268 268 268 267 267 267 268 268 268 269 270
257 257 257 257 258 258 259 259 259 259 260 261 262 263 263 263 264 264 265 266 267 268 269 270 271 271 272 271 271 270 269 268 268 268 268 268 268 268 269 270 270 271
257 257 258 258 258 259 260 260 260 260 260 261 261 262 263 263 264 264 265 266 266 267 268 268 269 269 270 270 270 269 269 269 269 269 269 269 269 270 270 271 272 273
257 257 258 258 259 259 259 260 260 260 260 260 261 261 262 262 263 263 264 264 265 265 265 266 266 267 268 268 269 269 269 269 269 269 269 269 270 270 271 272 272 274
257 257 257 258 258 258 259 259 260 260 260 260 260 260 261 261 262 262 263 263 263 263 264 264 265 265 266 267 268 268 268 268 268 269 269 269 270 270 271 272 273 274
256 257 257 257 257 258 258 259 259 260 260 260 260 260 261 261 262 262 263 263 263 264 264 264 264 265 265 266 267 268 268 268 268 268 268 269 269 270 271 271 272 274
256 257 257 257 257 257 257 258 258 259 259 259 260 260 260 261 261 262 262 263 263 264 264 264 263 264 265 265 266 267 267 267 267 267 268 268 268 269 270 271 272 273
256 257 257 257 256 257 257 257 257 257 258 258 258 259 259 260 260 261 261 261 262 262 263 263 262 263 263 264 265 266 266 267 267 266 266 267 267 268 269 270 272 273
258 258 258 257 256 256 256 256 256 256 256 257 257 257 257 257 258 259 260 260 260 260 260 261 261 262 262 263 264 265 265 266 266 266 266 266 267 267 269 270 271 272
263 262 262 261 259 258 256 256 256 255 255 255 256 256 256 256 257 257 258 259 260 260 260 260 260 261 262 262 263 264 265 265 265 266 266 266 267 268 268 269 270 271
Height
5758 5759 5760 5761 5763 5764 5765 5766 5767 5767 5767 5767 5768 5768 5768 5768 5768 5768 5769 5769 5768 5767 5767 5767 5766 5766 5766 5765 5765 5765 5765 5765 5765 5766 5766 5767 5767 5766 5766 5765 5765 5764
5750 5751 5752 5753 5754 5756 5756 5757 5759 5759 5760 5761 5761 5761 5762 5762 5761 5761 5761 5761 5761 5761 5761 5760 5759 5759 5759 5758 5758 5757 5758 5758 5758 5759 5759 5760 5760 5760 5759 5759 5758 5757
5742 5743 5743 5744 5746 5747 5747 5748 5750 5751 5753 5754 5755 5755 5755 5755 5755 5754 5754 5754 5754 5754 5754 5754 5753 5752 5752 5751 5751 5751 5751 5751 5751 5752 5752 5752 5752 5752 5752 5751 5750 5750
5734 5734 5735 5736 5737 5738 5739 5740 5741 5743 5744 5746 5747 5747 5747 5747 5747 5748 5748 5747 5747 5747 5747 5747 5746 5746 5745 5745 5744 5744 5744 5744 5745 5745 5744 5745 5744 5744 5744 5743 5742 5742
5726 5726 5727 5728 5729 5730 5730 5732 5733 5734 5736 5737 5738 5738 5739 5739 5739 5740 5740 5740 5740 5740 5739 5739 5739 5739 5739 5738 5738 5737 5737 5737 5738 5738 5737 5737 5737 5736 5736 5735 5735 5735
5718 5719 5719 5720 5721 5722 5723 5724 5725 5726 5727 5728 5729 5729 5730 5730 5731 5731 5731 5731 5732 5732 5732 5732 5732 5732 5732 5731 5731 5731 5731 5731 5731 5731 5730 5730 5729 5728 5728 5727 5727 5727
5711 5711 5712 5712 5713 5714 5714 5716 5716 5717 5718 5719 5719 5720 5721 5721 5722 5723 5723 5723 5724 5724 5725 5725 5725 5725 5725 5725 5724 5725 5724 5724 5723 5723 5723 5723 5722 5721 5721 5720 5720 5719
5703 5703 5704 5705 5706 5706 5707 5708 5708 5709 5709 5710 5711 5712 5712 5713 5714 5715 5715 5715 5716 5717 5717 5718 5718 5718 5717 5717 5717 5717 5717 5717 5716 5715 5715 5715 5714 5714 5714 5713 5712 5712
5694 5695 5695 5696 5698 5698 5699 5700 5700 5700 5701 5702 5703 5704 5704 5706 5706 5707 5707 5708 5709 5710 5710 5710 5711 5710 5710 5709 5710 5710 5710 5710 5709 5708 5707 5707 5707 5706 5706 5705 5704 5704
5685 5686 5687 5688 5689 5689 5691 5691 5691 5692 5693 5694 5695 5696 5697 5698 5699 5699 5700 5700 5701 5702 5702 5703 5703 5702 5702 5702 5703 5702 5702 5702 5701 5701 5700 5700 5699 5699 5698 5697 5696 5696
5676 5677 5678 5679 5680 5680 5681 5682 5683 5684 5684 5685 5686 5688 5689 5690 5691 5691 5692 5692 5693 5693 5694 5695 5695 5694 5694 5695 5695 5695 5695 5695 5694 5693 5693 5692 5692 5691 5690 5689 5689 5689
5667 5667 5668 5669 5670 5671 5672 5673 5674 5675 5676 5677 5678 5679 5680 5681 5682 5683 5683 5683 5684 5684 5685 5686 5686 5686 5687 5687 5687 5686 5687 5687 5687 5686 5685 5685 5684 5683 5682 5681 5681 5681
5659 5658 5659 5660 5661 5661 5663 5664 5665 5666 5667 5668 5669 5670 5672 5672 5673 5674 5674 5674 5675 5675 5676 5677 5677 5678 5678 5678 5678 5678 5678 5678 5678 5678 5677 5677 5676 5675 5674 5674 5673 5673
5650 5649 5649 5651 5651 5652 5653 5654 5655 5656 5657 5659 5660 5661 5662 5663 5663 5664 5665 5665 5666 5666 5667 5667 5668 5669 5669 5669 5669 5669 5669 5669 5669 5669 5668 5668 5668 5667 5666 5666 5665 5665
5639 5639 5640 5640 5641 5642 5644 5645 5646 5647 5648 5649 5651 5652 5653 5653 5653 5654 5655 5656 5656 5657 5657 5658 5659 5660 5661 5660 5660 5660 5659 5659 5659 5659 5659 5659 5659 5658 5658 5657 5657 5657
5628 5629 5629 5630 5630 5632 5633 5635 5636 5637 5638 5640 5641 5642 5643 5643 5643 5644 5645 5646 5646 5647 5647 5648 5649 5650 5651 5651 5650 5650 5649 5649 5649 5650 5650 5650 5649 5649 5649 5649 5649 5648
5618 5618 5618 5618 5619 5620 5622 5625 5626 5627 5628 5630 5630 5631 5631 5632 5633 5634 5635 5635 5636 5637 5637 5638 5639 5640 5640 5640 5640 5640 5639 5638 5639 5640 5640 5640 5640 5640 5640 5640 5640 5639
5606 5606 5606 5607 5608 5610 5611 5614 5615 5616 5618 5619 5619 5619 5619 5620 5622 5623 5624 5624 5625 5626 5627 5628 5629 5629 5628 5628 5628 5629 5628 5628 5629 5629 5630 5630 5631 5631 5631 5631 5630 5630
5594 5594 5595 5597 5599 5600 5601 5602 5603 5605 5607 5608 5608 5608 5607 5609 5610 5611 5612 5613 5613 5614 5616 5617 5618 5618 5617 5617 5617 5618 5618 5618 5618 5619 5620 5620 5621 5621 5621 5621 5621 5621
5582 5583 5585 5587 5589 5589 5589 5590 5591 5593 5596 5596 5596 5596 5596 5597 5599 5599 5601 5602 5602 5602 5604 5605 5607 5608 5607 5606 5606 5606 5606 5607 5608 5608 5609 5610 5611 5611 5611 5611 5611 5611
5572 5573 5575 5577 5578 5577 5577 5579 5581 5582 5583 5584 5583 5584 5585 5586 5587 5588 5589 5590 5590 5591 5592 5594 5597 5597 5596 5596 5596 5595 5595 5596 5597 5598 5599 5600 5600 5600 5600 5601 5601 5601
5562 5562 5564 5566 5567 5567 5567 5569 5570 5571 5572 5572 5571 5572 5574 5575 5576 5577 5577 5578 5578 5579 5580 5584 5587 5586 5585 5585 5585 5585 5584 5584 5585 5587 5588 5589 5590 5590 5590 5590 5591 5591
5551 5551 5553 5555 5556 5556 5557 5559 5559 5560 5561 5561 5560 5561 5563 5564 5565 5565 5566 5566 5568 5569 5570 5573 5575 5575 5574 5575 5575 5574 5574 5574 5575 5576 5577 5578 5579 5580 5580 5580 5581 5581
5539 5539 5541 5543 5544 5545 5546 5548 5548 5549 5550 5549 5549 5551 5553 5554 5554 5554 5555 5556 5557 5559 5559 5561 5564 5564 5564 5564 5564 5563 5563 5564 5565 5565 5566 5568 5569 5569 5570 5570 5571 5571
5527 5527 5528 5530 5532 5534 5535 5536 5537 5538 5538 5538 5538 5539 5542 5543 5543 5544 5545 5546 5547 5548 5549 5550 5552 5554 5553 5553 5554 5553 5552 5553 5554 5554 5556 5557 5559 5560 5560 5561 5561 5562
5514 5514 5515 5517 5518 5520 5522 5523 5524 5525 5526 5526 5526 5527 5529 5531 5532 5533 5534 5535 5536 5536 5538 5539 5541 5543 5543 5543 5543 5543 5542 5542 5543 5544 5546 5547 5548 5549 5550 5550 5551 5552